This is the latest recevied weather packets stored in our database for station/object KC3VCX. If no packets are shown the sender has not sent any weather packets the latest 10 day(s).
| Time | Temp. | Humidity | Pressure | Rain* | Wind** | Luminosity | Snow |
|---|---|---|---|---|---|---|---|
| 1777781888 | 1.11° C | 82% | 1018.2 hPa | 0 mm | - | 0 W/m² | - |
| 1777781586 | 1.11° C | 83% | 1018.3 hPa | 0 mm | - | 0 W/m² | - |
| 1777781283 | 1.67° C | 82% | 1018.2 hPa | 0 mm | - | 0 W/m² | - |
| 1777780981 | 1.67° C | 81% | 1018.2 hPa | 0 mm | - | 0 W/m² | - |
| 1777780677 | 1.67° C | 80% | 1018.1 hPa | 0 mm | - | 0 W/m² | - |
| 1777780375 | 1.11° C | 84% | 1018.3 hPa | 0 mm | - | 0 W/m² | - |
| 1777780072 | 1.11° C | 85% | 1018.1 hPa | 0 mm | - | 0 W/m² | - |
| 1777779769 | 1.11° C | 85% | 1018.1 hPa | 0 mm | - | 0 W/m² | - |
| 1777779466 | 1.11° C | 83% | 1018.2 hPa | 0 mm | - | 0 W/m² | - |
| 1777779164 | 1.11° C | 83% | 1018.3 hPa | 0 mm | - | 0 W/m² | - |
| 1777778862 | 1.67° C | 85% | 1018.2 hPa | 0 mm | - | 0 W/m² | - |
| 1777778560 | 1.11° C | 85% | 1018.2 hPa | 0 mm | - | 0 W/m² | - |
| 1777778257 | 1.67° C | 85% | 1018.2 hPa | 0 mm | - | 0 W/m² | - |
| 1777777955 | 1.67° C | 85% | 1018.3 hPa | 0 mm | - | 0 W/m² | - |
| 1777777651 | 1.67° C | 85% | 1018.3 hPa | 0 mm | - | 0 W/m² | - |
| 1777777347 | 1.67° C | 84% | 1018.3 hPa | 0 mm | - | 0 W/m² | - |
| 1777777044 | 1.67° C | 83% | 1018.4 hPa | 0 mm | - | 0 W/m² | - |
| 1777776742 | 1.67° C | 82% | 1018.4 hPa | 0 mm | - | 0 W/m² | - |
| 1777776438 | 2.22° C | 81% | 1018.3 hPa | 0 mm | - | 0 W/m² | - |
| 1777776136 | 2.22° C | 82% | 1018.3 hPa | 0 mm | - | 0 W/m² | - |
| 1777775833 | 2.22° C | 81% | 1018.1 hPa | 0 mm | - | 0 W/m² | - |
| 1777775529 | 2.78° C | 79% | 1018.5 hPa | 0 mm | - | 0 W/m² | - |
| 1777775226 | 2.78° C | 76% | 1018.6 hPa | 0 mm | - | 0 W/m² | - |
| 1777774925 | 2.78° C | 74% | 1018.4 hPa | 0 mm | - | 0 W/m² | - |
| 1777774622 | 2.78° C | 77% | 1018.5 hPa | 0 mm | - | 0 W/m² | - |
* Rain latest hour (hover to see other rain measurements)
** Current wind speed in m/s (hover to see current wind gust speed)